Bookmark and Share
Track history (hours):
 

Cheikh El Mokrani

Last reported at 2014-Apr-16 20:09 UTC. Time now 2014-Apr-17 12:48 UTC.
Position N 37°06' E 004°59'.

Length 220 m; draft 7.8 m.

Type: Ship (hazmat cat D). MMSI: 309979000.

NotesDate/timePositionNaut miles runAvg speedWind from/ knotsBaromVisibWave heightAir tempDewpointWater temp
2014-Apr-16 20:09N 37°06' E 004°59'3011.2
2014-Apr-16 17:27N 37°05' E 004°21'1111.9
2014-Apr-16 16:33N 37°12' E 004°12'1211.3
2014-Apr-16 15:31N 37°18' E 003°59'24 4.0
2014-Apr-16 09:33N 37°12' E 003°30'1212.0
2014-Apr-16 08:33N 37°00' E 003°27'3712.5
2014-Apr-16 05:33N 36°55' E 002°41'1412.6
2014-Apr-16 04:25N 36°52' E 002°23'1613.3
2014-Apr-16 03:15N 36°49' E 002°04'912.7
2014-Apr-16 02:33N 36°48' E 001°53'1312.6
2014-Apr-16 01:33N 36°45' E 001°38'5513.2
2014-Apr-15 21:23N 36°29' E 000°33'51 1.5
2014-Apr-14 11:32N 35°54' W 000°13'119 9.1
2014-Apr-13 22:27N 37°47' E 000°32'1414.0
2014-Apr-13 21:27N 38°00' E 000°37'1814.4
2014-Apr-13 20:11N 38°18' E 000°44'7314.5
2014-Apr-13 15:09N 39°24' E 001°23'914.8
2014-Apr-13 14:32N 39°32' E 001°29'1514.9
2014-Apr-13 13:33N 39°44' E 001°41'1515.1
2014-Apr-13 12:33N 39°56' E 001°52'1515.3
2014-Apr-13 11:33N 40°08' E 002°04'1515.2
2014-Apr-13 10:33N 40°20' E 002°15'1515.3
2014-Apr-13 09:33N 40°33' E 002°27'1515.3
2014-Apr-13 08:33N 40°45' E 002°39'1616.1
2014-Apr-13 07:33N 40°58' E 002°51'1717.1
2014-Apr-13 06:33N 41°12' E 003°04'1717.5
2014-Apr-13 05:33N 41°26' E 003°18'5317.6
2014-Apr-13 02:33N 42°09' E 003°60'1817.9
2014-Apr-13 01:33N 42°23' E 004°14'1817.7
2014-Apr-13 00:33N 42°38' E 004°28'1717.2
2014-Apr-12 23:33N 42°52' E 004°41'1616.0
2014-Apr-12 22:31N 43°05' E 004°54'1314.0
2014-Apr-12 21:34N 43°18' E 004°59'8 7.4
2014-Apr-12 20:32N 43°25' E 004°54'0 0.0
2014-Apr-12 19:32N 43°25' E 004°54'0 0.0
2014-Apr-12 18:32N 43°25' E 004°54'0 0.0
2014-Apr-12 17:30N 43°25' E 004°54'0 0.0
2014-Apr-12 16:32N 43°25' E 004°54'0 0.0
2014-Apr-12 15:32N 43°25' E 004°54'0 0.0
2014-Apr-12 14:32N 43°25' E 004°54'0 0.0
2014-Apr-12 13:32N 43°25' E 004°54'0 0.0
2014-Apr-12 12:29N 43°25' E 004°54'0 0.0
2014-Apr-12 11:32N 43°25' E 004°54'0 0.0
2014-Apr-12 10:29N 43°25' E 004°54'0 0.0
2014-Apr-12 09:32N 43°25' E 004°54'0 0.0
2014-Apr-12 08:32N 43°25' E 004°54'0 0.0
2014-Apr-12 07:26N 43°25' E 004°54'0 0.0
2014-Apr-12 06:32N 43°25' E 004°54'0 0.0
2014-Apr-12 05:32N 43°25' E 004°54'0 0.0
2014-Apr-12 04:32N 43°25' E 004°54'0 0.0
2014-Apr-12 03:32N 43°25' E 004°54'0 0.0
2014-Apr-12 02:26N 43°25' E 004°54'0 0.0
2014-Apr-12 01:32N 43°25' E 004°54'0 0.0
2014-Apr-12 00:32N 43°25' E 004°54'0 0.0
2014-Apr-11 23:32N 43°25' E 004°54'0 0.1
2014-Apr-11 22:33N 43°25' E 004°54'6 5.8
2014-Apr-11 21:33N 43°20' E 004°59'7 7.1
2014-Apr-11 20:33N 43°14' E 005°02'10 9.7
2014-Apr-11 19:32N 43°04' E 005°05'2914.6
2014-Apr-11 17:32N 42°36' E 005°15'1615.6
2014-Apr-11 16:32N 42°20' E 005°20'1515.4
2014-Apr-11 15:33N 42°06' E 005°25'1616.1
2014-Apr-11 14:33N 41°50' E 005°31'3215.8
2014-Apr-11 12:30N 41°19' E 005°42'1516.1
2014-Apr-11 11:33N 41°04' E 005°47'1816.3
2014-Apr-11 10:26N 40°46' E 005°53'1516.5
2014-Apr-11 09:32N 40°32' E 005°58'1915.7
2014-Apr-11 08:18N 40°14' E 006°04'1417.4
2014-Apr-11 07:30N 39°60' E 006°09'2116.4
2014-Apr-11 06:13N 39°40' E 006°15'154 3.2
2014-Apr-09 05:15N 37°48' E 003°58'1014.9
2014-Apr-09 04:33N 37°51' E 003°46'1514.8
2014-Apr-09 03:33N 37°55' E 003°28'1514.6
2014-Apr-09 02:33N 37°60' E 003°10'1515.3
2014-Apr-09 01:33N 38°04' E 002°52'1413.9
2014-Apr-09 00:33N 38°09' E 002°35'1714.5
2014-Apr-08 23:24N 38°14' E 002°14'1214.6
2014-Apr-08 22:33N 38°17' E 001°59'1514.8
2014-Apr-08 21:33N 38°22' E 001°41'1615.3
2014-Apr-08 20:29N 38°27' E 001°22'1614.6
2014-Apr-08 19:22N 38°33' E 001°03'3816.2
2014-Apr-08 17:03N 39°01' E 000°31'9 0.3
2014-Apr-07 13:30N 39°08' E 000°23'2914.5
2014-Apr-07 11:32N 38°47' E 000°48'1515.2
2014-Apr-07 10:31N 38°36' E 001°02'1514.9
2014-Apr-07 09:31N 38°28' E 001°18'3216.0
2014-Apr-07 07:32N 38°18' E 001°57'1915.0
2014-Apr-07 06:17N 38°13' E 002°20'1216.0
2014-Apr-07 05:31N 38°10' E 002°35'1616.3
2014-Apr-07 04:33N 38°05' E 002°54'1716.3
2014-Apr-07 03:31N 38°00' E 003°14'1616.6
2014-Apr-07 02:33N 37°55' E 003°33'1916.2
2014-Apr-07 01:25N 37°50' E 003°56'  

Dump ship's entire track history

sailing weather and tide predictions

Cheikh El Mokrani — C6WD5 — position and weather